TimeCST,TemperatureF,Dew PointF,Humidity,Sea Level PressureIn,VisibilityMPH,Wind Direction,Wind SpeedMPH,Gust SpeedMPH,PrecipitationIn,Events,Conditions,WindDirDegrees,DateUTC
12:15 AM,-18.4,-25.6,70,30.07,10.0,Calm,Calm,-,N/A,,Clear,0,2013-02-17 06:15:00
12:35 AM,-22.0,-27.4,76,30.07,10.0,Calm,Calm,-,N/A,,Clear,0,2013-02-17 06:35:00
12:55 AM,-22.0,-27.4,76,30.07,10.0,Calm,Calm,-,N/A,,Clear,0,2013-02-17 06:55:00
1:15 AM,-22.0,-27.4,76,30.07,10.0,Calm,Calm,-,N/A,,Clear,0,2013-02-17 07:15:00
1:35 AM,-22.0,-27.4,76,30.08,10.0,Calm,Calm,-,N/A,,Clear,0,2013-02-17 07:35:00
1:55 AM,-22.0,-27.4,76,30.08,10.0,Calm,Calm,-,N/A,,Clear,0,2013-02-17 07:55:00
2:15 AM,-22.0,-29.2,69,30.08,10.0,Calm,Calm,-,N/A,,Clear,0,2013-02-17 08:15:00
2:35 AM,-23.8,-29.2,76,30.08,10.0,Calm,Calm,-,N/A,,Scattered Clouds,0,2013-02-17 08:35:00
2:55 AM,-23.8,-31.0,69,30.08,10.0,Calm,Calm,-,N/A,,Scattered Clouds,0,2013-02-17 08:55:00
3:15 AM,-23.8,-31.0,69,30.07,10.0,Calm,Calm,-,N/A,,Clear,0,2013-02-17 09:15:00
3:35 AM,-23.8,-31.0,69,30.07,10.0,Calm,Calm,-,N/A,,Clear,0,2013-02-17 09:35:00
3:55 AM,-23.8,-31.0,69,30.07,10.0,Calm,Calm,-,N/A,,Mostly Cloudy,0,2013-02-17 09:55:00
4:15 AM,-23.8,-31.0,69,30.07,10.0,Calm,Calm,-,N/A,,Overcast,0,2013-02-17 10:15:00
4:35 AM,-23.8,-31.0,69,30.06,10.0,Calm,Calm,-,N/A,,Overcast,0,2013-02-17 10:35:00
4:55 AM,-23.8,-31.0,69,30.06,10.0,Calm,Calm,-,N/A,,Overcast,0,2013-02-17 10:55:00
5:15 AM,-23.8,-31.0,69,30.06,10.0,Calm,Calm,-,N/A,,Mostly Cloudy,0,2013-02-17 11:15:00
5:35 AM,-23.8,-31.0,69,30.05,10.0,Calm,Calm,-,N/A,,Scattered Clouds,0,2013-02-17 11:35:00
5:55 AM,-25.6,-31.0,76,30.05,10.0,Calm,Calm,-,N/A,,Clear,0,2013-02-17 11:55:00
6:15 AM,-25.6,-31.0,76,30.05,10.0,Calm,Calm,-,N/A,,Clear,0,2013-02-17 12:15:00
6:35 AM,-25.6,-31.0,76,30.05,10.0,Calm,Calm,-,N/A,,Clear,0,2013-02-17 12:35:00
6:55 AM,-25.6,-32.8,69,30.05,10.0,Calm,Calm,-,N/A,,Clear,0,2013-02-17 12:55:00
7:15 AM,-25.6,-31.0,76,30.05,10.0,Calm,Calm,-,N/A,,Clear,0,2013-02-17 13:15:00
7:35 AM,-22.0,-27.4,76,30.06,10.0,Calm,Calm,-,N/A,,Clear,0,2013-02-17 13:35:00
7:55 AM,-18.4,-25.6,70,30.06,10.0,Calm,Calm,-,N/A,,Clear,0,2013-02-17 13:55:00
8:15 AM,-16.6,-22.0,76,30.05,10.0,Calm,Calm,-,N/A,,Clear,0,2013-02-17 14:15:00
8:35 AM,-11.2,-16.6,77,30.05,10.0,Calm,Calm,-,N/A,,Clear,0,2013-02-17 14:35:00
8:55 AM,-7.6,-13.0,77,30.04,10.0,Calm,Calm,-,N/A,,Clear,0,2013-02-17 14:55:00
9:15 AM,-2.2,-5.8,85,30.05,10.0,Calm,Calm,-,N/A,,Clear,0,2013-02-17 15:15:00
9:35 AM,5.0,1.4,85,30.05,10.0,Calm,Calm,-,N/A,,Clear,0,2013-02-17 15:35:00
9:55 AM,8.6,3.2,79,30.04,10.0,SSW,6.9,-,N/A,,Clear,200,2013-02-17 15:55:00
10:15 AM,10.4,-0.4,62,30.04,10.0,South,6.9,-,N/A,,Clear,190,2013-02-17 16:15:00
10:35 AM,12.2,-0.4,57,30.03,10.0,SSW,8.1,-,N/A,,Clear,210,2013-02-17 16:35:00
10:55 AM,14.0,-0.4,53,30.03,10.0,SSW,8.1,-,N/A,,Clear,210,2013-02-17 16:55:00
11:15 AM,14.0,-0.4,53,30.02,10.0,SSW,6.9,-,N/A,,Clear,210,2013-02-17 17:15:00
11:35 AM,17.6,1.4,49,30.01,10.0,SSW,9.2,-,N/A,,Clear,210,2013-02-17 17:35:00
11:55 AM,17.6,1.4,49,30.00,10.0,SSW,6.9,-,N/A,,Clear,210,2013-02-17 17:55:00
12:15 PM,19.4,1.4,46,29.99,10.0,SSW,8.1,-,N/A,,Clear,210,2013-02-17 18:15:00
12:55 PM,19.4,1.4,46,29.97,10.0,South,8.1,-,N/A,,Clear,170,2013-02-17 18:55:00
1:15 PM,21.2,3.2,46,29.96,10.0,SSE,9.2,-,N/A,,Clear,160,2013-02-17 19:15:00
1:35 PM,21.2,3.2,46,29.95,10.0,SSE,9.2,-,N/A,,Clear,150,2013-02-17 19:35:00
1:55 PM,23.0,3.2,43,29.94,10.0,South,8.1,-,N/A,,Clear,190,2013-02-17 19:55:00
2:15 PM,23.0,3.2,43,29.94,10.0,South,9.2,-,N/A,,Clear,180,2013-02-17 20:15:00
2:35 PM,23.0,3.2,43,29.92,10.0,SSE,6.9,-,N/A,,Clear,160,2013-02-17 20:35:00
2:55 PM,23.0,5.0,46,29.92,10.0,SSE,9.2,-,N/A,,Clear,160,2013-02-17 20:55:00
3:15 PM,23.0,5.0,46,29.91,10.0,South,6.9,-,N/A,,Clear,190,2013-02-17 21:15:00
3:35 PM,23.0,5.0,46,29.90,10.0,South,8.1,-,N/A,,Mostly Cloudy,170,2013-02-17 21:35:00
3:55 PM,23.0,5.0,46,29.89,10.0,SSE,8.1,-,N/A,,Overcast,150,2013-02-17 21:55:00
4:15 PM,23.0,5.0,46,29.90,10.0,South,8.1,-,N/A,,Overcast,170,2013-02-17 22:15:00
4:35 PM,21.2,5.0,50,29.90,10.0,South,5.8,-,N/A,,Overcast,170,2013-02-17 22:35:00
4:55 PM,21.2,5.0,50,29.89,10.0,South,9.2,-,N/A,,Overcast,170,2013-02-17 22:55:00
5:15 PM,21.2,5.0,50,29.89,10.0,SSE,9.2,-,N/A,,Overcast,160,2013-02-17 23:15:00
5:35 PM,21.2,5.0,50,29.89,10.0,South,9.2,-,N/A,,Overcast,170,2013-02-17 23:35:00
5:55 PM,19.4,5.0,54,29.88,10.0,SSE,8.1,-,N/A,,Overcast,160,2013-02-17 23:55:00
6:15 PM,19.4,3.2,49,29.87,10.0,South,4.6,-,N/A,,Overcast,170,2013-02-18 00:15:00
6:35 PM,19.4,3.2,49,29.87,10.0,South,9.2,16.1,N/A,,Overcast,170,2013-02-18 00:35:00
6:55 PM,19.4,5.0,54,29.86,10.0,South,10.4,-,N/A,,Overcast,170,2013-02-18 00:55:00
7:15 PM,19.4,5.0,54,29.86,10.0,South,9.2,-,N/A,,Overcast,180,2013-02-18 01:15:00
7:35 PM,19.4,5.0,54,29.85,10.0,South,8.1,-,N/A,,Overcast,170,2013-02-18 01:35:00
7:55 PM,19.4,5.0,54,29.85,10.0,South,8.1,-,N/A,,Overcast,170,2013-02-18 01:55:00
8:15 PM,19.4,6.8,58,29.85,10.0,South,9.2,-,N/A,,Overcast,170,2013-02-18 02:15:00
8:35 PM,17.6,6.8,63,29.84,10.0,SSE,8.1,18.4,N/A,,Overcast,160,2013-02-18 02:35:00
8:55 PM,17.6,6.8,63,29.84,10.0,SSE,8.1,-,N/A,,Overcast,160,2013-02-18 02:55:00
9:15 PM,17.6,6.8,63,29.84,10.0,South,8.1,-,N/A,,Overcast,170,2013-02-18 03:15:00
9:35 PM,17.6,6.8,63,29.83,10.0,South,9.2,-,N/A,,Overcast,170,2013-02-18 03:35:00
9:55 PM,17.6,6.8,63,29.83,10.0,South,9.2,16.1,N/A,,Overcast,170,2013-02-18 03:55:00
10:15 PM,17.6,6.8,63,29.82,10.0,South,8.1,-,N/A,,Overcast,170,2013-02-18 04:15:00
10:35 PM,17.6,6.8,63,29.83,10.0,South,10.4,18.4,N/A,,Overcast,180,2013-02-18 04:35:00
10:55 PM,17.6,8.6,68,29.82,10.0,South,8.1,16.1,N/A,,Overcast,180,2013-02-18 04:55:00
11:15 PM,17.6,8.6,68,29.81,10.0,South,10.4,-,N/A,,Mostly Cloudy,180,2013-02-18 05:15:00
11:35 PM,17.6,8.6,68,29.81,10.0,South,9.2,-,N/A,,Mostly Cloudy,180,2013-02-18 05:35:00
11:55 PM,17.6,8.6,68,29.81,10.0,South,6.9,-,N/A,,Mostly Cloudy,180,2013-02-18 05:55:00